Tracking 30685 objects as of 17-Jun-2025
HD Live streaming from Space Station
objects crossing your sky now

STARLINK-5884

Track STARLINK-5884 now!
10-day predictions
STARLINK-5884 is classified as:


NORAD ID: 55957
Int'l Code: 2023-037AV
Perigee: 577.1 km
Apogee: 581.5 km
Inclination: 70.0 °
Period: 96.1 minutes
Semi major axis: 6950 km
RCS: Unknown
Launch date: March 17, 2023
Source: United States (US)
Launch site: AIR FORCE WESTERN TEST RANGE (AFWTR)
Your satellite tracking list
Your tracking list is empty




NASA's NSSDC Master Catalog

Two Line Element Set (TLE):
1 55957U 23037AV  25168.91668981  .00045060  00000-0  37634-2 0  9996
2 55957  70.0005 212.1012 0003221 268.8041   2.5034 14.98294403125153
Source of the keplerian elements: AFSPC